Weather Roundup
Issued by NWS Chicago, IL

Home | Current Version | Previous Version | Graphics & Text | Print | Product List | Glossary On
Versions: 1 2 3 4 5 6 7 8 9 10 11 12 13 14 15 16 17 18 19 20 21 22 23 24 25 26 27 28 29 30 31 32 33 34 35 36 37 38 39 40 41 42 43 44 45 46 47 48 49 50
000
NZUS59 KLOT 211710
HRRLOT

CHICAGO AREA WEATHER ROUNDUP
NATIONAL WEATHER SERVICE CHICAGO/ROMEOVILLE IL
1200 PM CDT THU AUG 21 2014

NOTE: "FAIR" INDICATES FEW OR NO CLOUDS BELOW 12,000 FEET WITH NO
SIGNIFICANT WEATHER AND/OR OBSTRUCTIONS TO VISIBILITY.

* THESE STATIONS ARE NOT UNDER NWS QUALITY CONTROL. THEY ALSO MAY NOT
  REPORT WEATHER SUCH AS PRECIPITATION OR FOG.

ILZ005-006-012>014-019>023-211800-
NORTHEAST ILLINOIS

CITY           SKY/WX    TMP DP  RH WIND       PRES   REMARKS
OHARE          CLOUDY    77  69  76 SW7       29.95R
MIDWAY         CLOUDY    78  73  84 SW8       29.95R HX  81
AURORA         CLOUDY    76  71  85 SW7       29.96R
LANSING*       CLOUDY    76  73  90 S9        29.96R
JOLIET*        CLOUDY    78  72  81 S8G16     29.96F HX  80
WAUKEGAN       CLOUDY    75  69  81 S9        29.94S
DUPAGE AIRPORT LGT RAIN  76  72  87 SW7       29.95S
WHEELING       CLOUDY    77  71  82 S6        29.96R
KANKAKEE*      CLOUDY    79  74  85 S12       29.98F HX  83
MORRIS*        CLOUDY    79  72  80 S10       29.96S HX  82
LEWIS AIRPORT* CLOUDY    76  74  92 SW8       29.96S
NORTHERLY IS     N/A     76  70  82 S9          N/A
$$

WIZ051-052-058>065-066-070>072-211800-
SOUTHEAST WISCONSIN

CITY           SKY/WX    TMP DP  RH WIND       PRES   REMARKS
MILWAUKEE      LGT RAIN  71  67  87 E7        29.94S
KENOSHA*       CLOUDY    76  70  82 S8        29.94F
RACINE*        CLOUDY    74  68  81 S6        29.96S
BURLINGTON     LGT RAIN  71  69  93 S6        29.96R
WAUKESHA       LGT RAIN  70  66  88 E5        29.95S
WEST BEND      RAIN      66  63  88 E5        29.96R
$$

INZ001>003-010>013-019-020-211800-
NORTHWEST INDIANA

CITY           SKY/WX    TMP DP  RH WIND       PRES   REMARKS
GARY*          CLOUDY    77  73  88 SW14      29.96R
MICHIGAN CITY* NOT AVBL
RENSSELAER*    NOT AVBL
VALPARAISO     CLOUDY    76  71  85 S14       29.97S
$$

LMZ740>746-211800-
SOUTHERN LAKE MICHIGAN

STATION/POSITION TIME  SKY/WX   TEMP WIND        PRES    VSBY
                                AIR  DIR/SP/G
                 (UTC)          (F)  (DEG/KT/KT) (MB)    (MI)
HARRISON CRIB    1700            74  190/ 10/ 11   N/A
BURNHAM HARBOR   1700            76  220/  7/  9   N/A
CALUMET HARBOR   1700            75  190/ 10/ 14 1013.1R
BURNS HARBOR     NOT AVBL
MICHIGAN CITY    1700            73  160/  4/  7   N/A
$$

ABBREVIATIONS USED IN REMARKS
   TC - TEMPERATURE IN CELSIUS
  WCI - WIND CHILL INDEX
   HX - HEAT INDEX
  VSB - VISIBILITY
$$



USA.gov is the U.S. government's official web portal to all federal, state and local government web resources and services.